Theta_e
349 351 352 353 352 352 351 351 352 352 353 350 351 350 346 345 342 344 346 347 352 353 352 350 350 347 350 350 351 349 348 348 350 349 348 347 344 342 341 338 340 342 348
349 349 348 351 352 351 351 352 353 354 353 350 347 341 341 343 345 346 347 348 350 349 348 344 343 344 350 348 349 348 346 347 348 350 347 346 348 344 340 341 344 344 341
351 350 351 351 351 351 350 352 353 352 349 346 343 340 339 341 343 345 345 344 345 345 344 346 345 348 349 347 345 346 348 347 346 346 345 345 345 344 347 347 343 339 334
350 353 352 352 352 351 350 351 348 349 350 347 345 341 337 338 340 343 344 343 343 341 340 340 341 342 343 346 346 346 346 346 347 348 345 341 337 337 338 339 340 338 336
349 354 354 354 353 352 349 345 346 347 347 345 345 338 336 338 341 342 342 342 341 340 340 339 339 339 341 343 344 345 346 346 343 343 340 338 336 336 337 335 334 334 335
347 347 349 348 347 348 347 346 345 345 343 337 335 338 340 340 341 341 341 340 342 342 341 337 335 335 337 337 338 340 340 339 339 335 334 335 334 330 328 329 329 329 328
345 344 345 346 346 346 346 345 343 342 340 339 338 339 340 339 339 337 336 339 341 341 340 336 333 333 333 333 333 332 331 330 331 331 330 327 324 325 326 326 327 327 326
344 343 344 344 343 342 342 342 339 339 339 340 340 339 338 337 337 337 336 338 337 336 337 333 332 331 333 333 332 330 328 327 325 325 327 327 325 324 323 325 326 326 327
343 343 341 341 340 339 337 337 338 338 340 340 339 337 336 333 331 330 332 333 331 328 327 326 324 322 322 324 324 322 321 318 317 316 317 318 318 322 324 326 328 328 329
341 342 343 341 341 339 338 338 338 338 338 337 336 329 325 324 324 327 329 328 327 325 323 319 319 319 319 320 321 321 321 317 317 318 324 322 320 318 317 320 321 323 325
332 340 340 342 339 339 339 337 336 338 337 332 326 326 325 325 325 325 325 326 326 324 321 318 318 314 313 312 314 319 319 320 321 322 319 318 318 318 318 318 318 318 318
328 333 341 340 339 337 337 337 336 336 331 325 325 324 323 322 322 323 323 323 320 318 318 320 320 318 317 319 321 321 320 320 319 319 319 318 317 317 316 316 316 315 316
327 330 338 339 338 337 337 335 334 331 327 325 323 323 324 323 322 321 317 313 314 319 320 320 319 319 317 316 314 313 316 316 316 316 316 316 315 314 315 315 314 315 314
325 328 336 337 337 335 335 333 331 330 328 326 324 324 323 323 322 319 315 314 315 317 316 317 316 316 316 315 316 316 316 314 314 314 315 314 314 313 313 313 313 313 313
325 328 324 319 318 319 321 326 328 329 329 327 325 325 325 324 322 316 316 317 318 317 319 319 319 317 316 316 316 316 315 314 314 314 314 313 312 312 312 312 311 311 312
319 318 317 317 319 319 321 323 326 329 330 328 326 326 325 324 318 312 314 314 315 315 317 317 317 317 317 317 316 315 313 313 314 314 313 313 312 312 312 312 311 311 311
317 316 315 315 317 316 319 321 320 319 326 327 326 325 323 315 312 313 314 314 315 316 318 317 317 317 317 317 316 314 312 313 313 313 312 312 312 312 311 311 310 309 309
319 319 317 316 316 316 317 319 322 323 323 318 316 314 314 314 314 314 314 315 317 316 318 319 318 317 317 317 316 313 312 313 312 311 311 312 311 311 311 310 310 309 310
320 320 319 318 317 318 318 316 317 319 318 316 315 314 314 315 315 314 314 317 318 318 318 318 318 317 317 316 315 313 312 312 311 311 311 311 311 311 311 310 309 306 305
319 319 320 320 319 319 318 317 316 317 317 318 318 318 315 314 315 316 315 317 318 317 317 318 318 318 317 315 313 312 311 311 311 311 311 310 310 310 309 309 309 308 308
320 321 320 320 318 317 317 318 318 318 318 318 318 318 317 318 319 318 318 318 318 317 318 318 317 317 316 314 312 311 310 309 309 308 307 308 308 308 307 306 305 305 305
318 319 316 317 317 319 319 320 319 319 318 318 319 319 316 317 318 318 318 318 317 317 317 317 317 316 315 313 312 311 310 309 309 309 308 308 307 307 307 307 306 306 306
318 318 319 319 317 316 318 319 320 319 319 318 318 318 317 318 318 317 317 317 317 317 317 316 317 316 315 314 312 312 311 311 310 309 310 310 310 310 309 309 308 308 308
319 319 319 318 317 317 318 318 318 317 317 318 317 317 317 317 317 317 317 317 317 317 317 316 315 316 316 315 313 312 311 310 310 310 309 309 310 310 308 309 309 308 308
318 318 318 319 318 318 317 318 318 318 318 319 319 319 319 319 318 318 318 318 317 317 317 316 314 314 313 312 312 312 312 311 310 309 309 309 309 309 309 309 309 309 308
318 318 318 318 318 318 318 318 318 318 318 318 318 319 319 319 319 319 319 319 318 318 317 315 315 316 315 315 314 313 312 311 310 310 309 307 309 309 309 309 308 307 307
Wind_Speed
17 19 19 23 26 26 25 26 23 18 14 13 7 3 8 13 12 16 21 24 22 23 22 26 22 19 14 11 15 12 13 14 11 10 3 1 4 7 8 12 8 7 7
12 17 19 20 23 23 26 21 15 13 11 13 7 6 12 14 24 22 21 20 19 21 20 18 18 15 13 13 11 11 11 13 12 10 3 2 2 6 5 6 8 5 5
4 11 17 18 21 25 26 21 18 18 19 13 5 11 26 31 27 20 14 12 13 13 12 15 15 12 10 8 7 8 9 10 9 9 6 2 3 2 2 1 3 4 2
12 8 14 15 20 21 19 16 18 22 25 23 22 26 48 29 19 13 10 6 7 9 7 14 14 8 5 5 5 7 10 10 6 7 6 2 2 1 2 3 0 2 4
14 12 11 13 13 16 16 16 19 23 27 28 29 31 35 19 10 6 5 6 7 5 4 2 5 1 3 5 10 10 8 5 5 5 6 5 8 6 8 7 7 8 7
12 10 10 12 12 15 16 18 21 25 24 23 24 17 11 13 10 10 10 8 7 3 4 6 9 9 10 8 10 8 4 2 1 3 3 4 4 6 6 7 9 8 4
14 11 9 12 17 18 21 22 19 17 16 16 19 21 20 16 12 10 9 8 5 5 6 8 9 10 11 12 12 11 8 4 3 2 1 1 2 6 10 9 9 8 8
14 12 12 16 21 20 21 17 16 15 17 17 15 15 15 11 9 11 10 6 5 6 6 7 9 8 9 9 10 10 8 7 5 1 3 2 3 5 7 8 8 9 11
16 13 13 18 21 21 20 19 16 16 16 14 12 12 14 11 12 13 11 9 8 8 8 9 9 9 9 9 8 8 5 4 2 1 1 2 2 1 2 3 5 8 9
24 21 17 21 23 21 20 18 16 19 19 14 16 13 12 17 13 14 14 11 12 11 9 9 7 6 5 6 6 5 3 3 3 3 4 6 6 6 6 6 5 5 7
24 26 23 22 23 27 20 19 22 22 21 19 18 13 12 15 14 13 15 12 12 10 7 5 2 2 4 7 7 5 6 4 7 8 7 6 5 6 7 7 6 5 5
25 26 27 25 21 23 22 22 23 26 27 27 23 17 13 15 16 13 13 12 12 9 7 6 5 8 12 15 16 17 16 11 7 5 4 4 4 5 6 6 5 5 5
27 26 24 25 22 22 24 27 26 26 25 21 23 20 17 18 17 16 13 12 9 11 12 16 18 19 20 18 14 11 9 6 4 4 4 5 7 8 9 9 8 8 9
25 23 22 23 18 17 20 24 24 24 26 23 21 20 18 16 14 12 12 11 11 13 14 12 11 11 12 12 8 7 6 6 5 4 4 5 6 8 8 8 9 11 11
12 12 15 24 22 17 13 10 26 23 32 24 21 20 19 15 14 13 12 10 8 10 10 6 4 5 6 6 6 6 5 6 5 4 5 6 7 8 7 7 10 12 12
28 32 30 24 31 24 26 18 20 18 18 23 23 19 15 11 14 15 13 11 10 9 6 5 4 2 2 2 4 6 5 4 3 4 5 6 7 7 8 8 9 10 11
31 30 33 28 26 27 27 15 18 19 17 16 19 15 14 17 15 12 10 7 6 3 3 4 3 1 1 1 3 5 4 3 3 4 5 5 6 7 9 9 8 7 8
28 20 25 27 22 32 15 7 12 12 17 15 14 14 14 14 12 10 7 5 2 2 5 5 6 4 3 2 5 6 4 3 3 3 4 4 4 5 6 7 7 7 8
18 19 22 24 27 21 12 8 6 8 12 13 12 12 13 12 10 8 8 6 5 6 7 6 6 5 5 5 6 6 5 5 5 4 3 4 4 5 6 7 7 6 8
17 23 16 13 11 7 5 5 7 5 6 7 8 8 8 10 9 10 10 9 8 8 7 7 7 8 8 7 8 6 6 6 5 5 4 5 5 5 7 8 8 9 9
4 6 6 5 5 7 9 11 8 7 6 7 6 6 8 7 8 9 9 9 9 8 7 8 9 10 10 8 6 6 7 6 6 6 6 5 5 7 7 8 9 9 11
10 8 8 8 8 7 6 6 6 6 6 6 5 4 7 8 8 8 8 8 7 8 8 8 10 11 10 8 7 8 8 8 8 7 7 6 7 8 8 8 8 9 11
8 8 8 7 4 5 4 4 5 6 6 5 4 4 6 6 6 6 6 6 6 6 6 7 8 10 12 11 11 10 11 10 9 9 11 10 11 11 10 10 10 11 12
7 6 7 5 3 3 3 3 4 4 4 4 4 4 5 6 6 6 6 6 6 6 5 6 8 10 11 13 12 13 14 14 13 13 15 16 16 15 14 14 14 15 15
7 7 6 4 4 3 4 4 5 5 5 6 6 6 6 6 6 5 5 5 6 7 8 7 8 10 13 16 20 23 23 23 24 22 18 19 21 21 21 21 20 18 18
4 3 3 2 3 3 3 5 6 6 5 4 5 4 6 7 7 8 7 8 9 9 9 7 8 8 11 12 12 13 14 16 20 21 21 21 23 24 24 25 26 23 25
Wind_Direction
236 245 240 239 235 234 236 235 235 232 232 222 225 282 325 320 312 305 294 284 272 265 252 242 238 243 246 252 246 234 227 230 244 260 253 40 258 245 223 218 223 266 277
220 240 238 241 244 235 229 229 229 216 182 182 165 355 338 322 315 304 288 275 269 266 255 239 225 229 230 233 233 234 229 224 236 247 232 94 167 175 205 247 287 276 264
268 246 244 236 237 235 229 218 204 185 178 162 172 334 325 318 315 300 289 286 278 256 235 215 199 189 187 197 204 206 212 209 224 248 250 164 128 162 210 214 205 188 279
351 292 262 250 240 235 222 198 180 188 194 202 218 219 235 273 294 299 297 289 209 153 143 128 122 115 121 155 177 217 219 201 213 243 259 247 85 310 70 82 217 268 317
335 323 288 263 237 222 207 184 175 187 203 216 215 207 219 223 237 230 249 217 216 212 182 112 96 171 195 170 163 186 194 187 220 239 286 316 6 349 13 2 339 337 322
323 315 282 251 224 206 195 180 181 189 188 188 194 211 204 165 193 217 217 246 259 218 138 117 108 125 122 121 122 119 120 163 215 282 311 341 350 43 37 3 345 344 344
311 302 258 236 212 198 186 173 175 179 183 193 199 196 191 184 175 212 226 237 220 154 134 118 112 122 125 124 121 121 121 105 109 243 211 31 354 345 344 342 333 316 318
291 285 248 217 199 193 187 182 178 187 196 198 197 203 179 181 173 204 202 194 166 144 141 126 118 115 119 126 126 123 122 131 123 66 31 18 332 316 312 302 303 306 305
265 249 236 215 199 194 197 205 207 198 196 197 183 201 174 146 160 176 160 156 144 123 113 102 107 111 120 125 123 113 110 95 71 313 262 271 273 327 18 13 348 337 339
277 263 229 215 207 205 209 207 208 203 193 164 171 171 158 144 163 161 155 153 141 128 118 111 115 120 127 111 107 97 98 90 75 74 78 97 108 92 73 57 19 350 336
279 265 250 223 213 221 227 207 190 179 168 154 144 144 135 136 137 158 151 147 143 136 137 125 113 150 111 100 95 97 108 94 93 100 89 79 63 45 33 24 19 8 336
273 264 242 235 219 210 197 190 182 169 152 144 133 118 115 125 136 146 145 138 133 129 126 103 106 126 113 102 96 96 93 87 78 68 48 19 2 348 344 341 333 323 303
269 258 236 223 211 197 187 178 167 154 136 133 128 122 124 118 122 130 124 122 127 120 110 102 107 110 101 93 92 88 76 64 24 352 355 348 342 334 333 326 323 320 317
242 240 224 200 186 182 185 171 152 144 139 137 125 131 136 130 139 132 133 129 125 124 121 121 118 108 101 95 80 53 48 41 26 14 10 353 338 334 332 334 336 335 326
224 205 91 93 95 96 105 144 130 139 141 139 138 144 145 157 153 153 148 145 139 137 131 134 149 126 103 87 64 32 19 17 12 15 5 349 342 334 335 335 333 331 330
78 85 85 85 84 79 75 67 96 118 139 154 148 144 152 156 154 155 143 134 132 135 126 150 151 146 95 63 29 2 358 359 358 2 342 338 329 326 326 326 328 326 324
73 82 86 82 89 75 77 61 65 86 119 128 146 150 154 147 156 154 151 139 134 136 186 195 209 217 288 356 343 335 325 331 349 334 327 315 313 323 329 319 316 322 336
90 91 100 100 97 105 117 115 131 130 116 113 131 133 140 152 161 164 169 171 164 226 243 241 230 230 246 285 309 314 304 303 297 303 300 305 315 307 301 312 324 342 332
89 82 93 100 107 120 141 146 132 130 127 125 136 143 165 177 181 196 220 243 269 269 250 245 236 244 241 262 285 277 254 256 255 267 277 288 296 292 300 312 320 309 317
105 115 111 111 130 148 161 177 198 193 160 146 166 174 181 205 218 227 236 248 259 269 251 245 234 236 232 249 263 253 250 252 255 261 263 269 275 274 288 302 303 309 313
160 155 170 175 180 191 187 191 185 185 174 177 171 182 193 205 229 231 227 237 250 261 251 242 235 233 228 244 262 261 259 262 263 264 260 263 278 287 284 287 297 304 306
226 214 184 184 186 184 175 179 190 195 188 168 169 179 210 216 225 231 236 232 249 253 247 249 237 231 232 244 244 242 246 246 251 254 264 265 268 270 273 282 291 296 299
168 158 147 138 118 124 108 117 125 124 125 140 167 190 196 210 222 234 234 239 258 243 248 249 250 241 233 237 242 245 253 254 250 250 254 257 258 262 268 276 279 281 281
126 129 135 129 103 86 86 108 123 138 148 157 158 173 203 220 222 220 226 229 239 244 261 279 268 257 250 251 256 259 261 266 258 253 252 255 259 263 260 261 267 269 272
141 134 133 160 173 164 159 165 179 179 192 202 215 218 221 225 238 246 251 256 270 275 272 270 285 291 293 287 278 276 277 273 271 270 261 257 260 261 258 257 257 261 262
151 149 146 149 167 192 215 218 220 220 229 239 248 260 257 257 257 258 262 265 269 272 273 281 301 306 299 299 295 287 287 281 275 270 265 259 261 262 260 258 258 248 252